STARLINK-30052, 57611

Orbit data source: Space-Track

STARLINK-30052, 57611 is a payload satellite owned by SpaceX/Seattle (US) in LEO that was launched on Fri, 11 Aug 2023 UTC via an FALCON 9 launch vehicle from the Air Force Eastern Test Range (AFETR). Payload-class satellites include a variety of spacecraft equipped with specific instruments for various scientific and technological missions. These include communications satellites like Starlink; space stations such as the ISS; scientific satellites like the Hubble; Earth observation satellites from companies like Planet Labs, Umbra, and HawkEye 360; GPS; miniature CubeSats for education and research; and military/defense satellites.

Loading next visibility...
Identifier
57611, 2023-119K
Orbit
LEO
Country
Flag of USUS
Related business
Manufacturer
SpaceX/Seattle
Mission
Operational Commercial Communications
Bus & Motor
STARLINK V2M, Unknown motor
Mass
730 kg wet, ~700 kg dry
Launch date (UTC)
2023-08-11 (3 years ago)
Launch vehicle
FALCON 9
Launch site
Air Force Eastern Test Range (AFETR)
Object type
Payload
Rocket body
Debris
Shape & HBR
Box + 2 Pan, 17.7 m
Radar Cross Section
33.884 m², Large (>1 m²)

Expand to show TLE details & history
Last TLE update: 19 hours ago

TLE from 19 hours ago
0 STARLINK-30052
1 57611U 23119K   26094.59706898 -.00001117  00000-0 -31967-4 0  9991
2 57611  43.0044 294.8262 0001192 246.1608 113.9118 15.26730987147037
Epoch: 2026-04-04T14:19Z
TLE epoch observation values (Epoch: 2026-04-04T14:19:46.759Z)
Latitude
-0.00007°
Longitude
-113.03327°
Altitude
485.7 km
Speed
7.624 km/s
True Right ascension
19h 39m 18s
True Declination
0° 00' 00"
Sunlit
Object was in daylight at epoch
Visualization orbit readout
Latitude
Unknown
Longitude
Unknown
Altitude
Unknown
Speed
Unknown
Apparent Right ascension
Unknown
Apparent Declination
Unknown
Sunlit
N/A
Visualization observer readout
Local Sidereal Time
15:28:02
Azimuth
Unknown
Elevation
Unknown
Doppler factor
Unknown
Orbital elements
Apogee altitude
488.355 km
Perigee altitude
486.718 km
Semi-major axis
6,865.673 km
Eccentricity
0.00012
Inclination
43.0044°
RAAN
294.8262°
Arg. of periapsis
246.1608°
True anomaly
113.92429°
Mean anomaly
113.9118°
Eccentric anomaly
113.91804°
Mean motion
3.81521 °/min
Orbital period
94.36 mins
BSTAR
-0.000031967
Loading maneuver chart data...
Computing Atmospheric mass density...
Loading historical data...
Loading historical data...
Loading historical data...
Loading historical data...
Loading historical data...
Loading historical data...
Loading historical data...

Documentation

Showing up to 5 results
|